This demonstration page uses our WeatherBlox Daily Observations layout. Learn more.

Left ArrowRight Arrow

38.83388, -104.82136

Hourly Observations for May 1, 2022

Temp ( °F °C ) Dew Point ( °F °C ) Humidity (%) Winds ( mph kmh ) Pressure ( in mb ) Visibility ( mi km ) Precip ( " mm )
12:58 am 00:58 undefined 44 6.4 16 -9.1 32 32 SSE 12 19 29.70 1006 10 16 0.00 0.00
1:58 am 01:58 Mostly Clear 42 5.8 15 -9.2 33 33 SSE 13 20 29.69 1005 10 16 0.00 0.00
2:58 am 02:58 Mostly Cloudy 42 5.3 19 -7.2 40 40 S 16 26 29.68 1005 10 16 0.00 0.00
3:58 am 03:58 undefined N/A N/A N/A undefined N/A N/A N/A 0.00 0.00
5:58 am 05:58 undefined 37 2.7 24 -4.3 60 60 S 17 28 29.67 1005 10 16 0.00 0.00
6:58 am 06:58 Sunny 39 3.8 25 -3.7 58 58 SSE 18 30 29.70 1006 10 16 0.00 0.00
7:58 am 07:58 Sunny 41 5 26 -3.5 55 55 S 14 22 29.72 1006 10 16 0.00 0.00
8:58 am 08:58 Sunny 43 6 26 -3.1 52 52 SSE 14 22 29.72 1006 10 16 0.00 0.00
9:58 am 09:58 Sunny 45 7.2 26 -3.1 48 48 SSE 13 20 29.71 1006 10 16 0.00 0.00
10:58 am 10:58 Sunny 49 9.5 28 -2.5 43 43 SE 9 15 29.69 1005 10 16 0.00 0.00
11:58 am 11:58 Sunny 52 11 26 -3.5 36 36 SE 15 24 29.70 1006 10 16 0.00 0.00
12:22 pm 12:22 Sunny 54 12 27 -3 35 35 SSE 14 22 29.72 1006 10 16 0.00 0.00
12:42 pm 12:42 Sunny 54 12 27 -3 35 35 S 13 20 29.71 1006 10 16 0.00 0.00
12:58 pm 12:58 Sunny 53 11.5 25 -3.8 34 34 ESE 9 15 29.71 1006 10 16 0.00 0.00
1:58 pm 13:58 Sunny 58 14.4 24 -4.4 27 27 ESE 14 22 29.69 1005 10 16 0.00 0.00
2:58 pm 14:58 Sunny 56 13.6 23 -5.1 27 27 S 7 11 29.68 1005 10 16 0.00 0.00
3:58 pm 15:58 Sunny 57 14 23 -5.2 26 26 SSE 7 11 29.67 1005 10 16 0.00 0.00
4:58 pm 16:58 Mostly Cloudy 58 14.4 23 -4.9 26 26 ESE 3 6 29.69 1005 10 16 0.00 0.00
5:58 pm 17:58 Mostly Cloudy 59 15.1 24 -4.3 26 26 WSW 5 7 29.59 1002 10 16 0.00 0.00
6:58 pm 18:58 Mostly Cloudy 60 15.3 25 -4.1 26 26 NNW 8 13 29.58 1002 10 16 0.00 0.00
7:58 pm 19:58 Mostly Cloudy 54 12.4 25 -3.8 32 32 NW 16 26 29.56 1001 10 16 0.00 0.00
8:58 pm 20:58 Cloudy 53 11.6 25 -3.7 34 34 NNW 18 30 29.57 1001 10 16 0.00 0.00
9:58 pm 21:58 Mostly Cloudy with Nearby Thunderstorms 52 11.1 27 -3 37 37 N 16 26 29.57 1001 10 16 0.00 0.00
10:58 pm 22:58 Cloudy 51 10.6 28 -2.4 40 40 N 15 24 29.55 1001 10 16 0.00 0.00
11:58 pm 23:58 Cloudy 50 10 29 -1.4 45 45 N 12 19 29.53 1000 10 16 0.00 0.00

Powered by AerisWeather